Regional Weather Roundup
Issued by NWS

Home | Current Version | Previous Version | Graphics & Text | Print | Product List | Glossary On
Versions: 1 2 3 4 5 6 7 8 9 10 11 12 13 14 15 16 17 18 19 20 21 22 23 24 25 26 27 28 29 30 31 32 33 34 35 36 37 38 39 40 41 42 43 44 45 46 47 48 49 50
000
ASUS45 KTFX 281510
RWRMT
MONTANA REGIONAL WEATHER ROUNDUP
NATIONAL WEATHER SERVICE GREAT FALLS MT
900 AM MDT WED JUN 28 2017

NOTE: "FAIR" INDICATES FEW OR NO CLOUDS BELOW 12000 FEET WITH NO
SIGNIFICANT WEATHER AND/OR OBSTRUCTIONS TO VISIBILITY.

MTZ001>007-043-281600-
WEST OF THE DIVIDE

CITY           SKY/WX    TMP DP  RH WIND       PRES   REMARKS
KALISPELL      MOSUNNY   62  50  64 S5        29.79S
MISSOULA       MOSUNNY   61  43  51 CALM      29.86F
BUTTE          PTSUNNY   58  44  60 NW3       29.93F
MULLAN PASS    SUNNY     52  36  54 VRB5      29.95S
ANACONDA         N/A     64  45  48 SW6       29.90F
DEER LODGE       N/A     61  46  59 CALM      29.92R
EUREKA           N/A     63  45  51 CALM      29.79F
HAMILTON         N/A     61  48  63 S5        29.87F
$$

MTZ008-052>055-281600-
SOUTHWEST MONTANA

CITY           SKY/WX    TMP DP  RH WIND       PRES   REMARKS
BOZEMAN        SUNNY     60  50  69 CALM      29.88F
DILLON         CLOUDY    59  45  59 SW8       29.90F
W YELLOWSTONE  CLOUDY    48  48 100 CALM      30.02S
ENNIS          SUNNY     63  43  48 S6        29.96F
THREE FORKS      N/A     61  49  64 CALM      29.88F
$$

MTZ009-010-012-014-046-048-049-054-281600-
EAST SLOPES AND CENTRAL MONTANA

CITY           SKY/WX    TMP DP  RH WIND       PRES   REMARKS
CUT BANK       CLOUDY    59  43  55 W5        29.77S
GREAT FALLS    SUNNY     67  41  38 SW13      29.77F
MALMSTROM AFB  SUNNY     66  43  42 SW12      29.78S
HELENA         CLOUDY    62  49  62 N3        29.86F
CHOTEAU          N/A     68  34  28 CALM      29.80S
$$

MTZ011-013-016-021-045-047-050-051-281600-
NORTH CENTRAL MONTANA

CITY           SKY/WX    TMP DP  RH WIND       PRES   REMARKS
HAVRE          CLOUDY    66  48  52 SW15      29.69F
LEWISTOWN      SUNNY     67  43  41 W10       29.80S
N BAR RANCH      N/A     68  36  30 NW16G22   29.82S
CHINOOK          N/A     66  50  55 E8        29.69S
FORT BENTON      N/A     66  43  42 MISG      29.76S
$$

MTZ017>020-022>027-061-062-281600-
NORTHEAST MONTANA

CITY           SKY/WX    TMP DP  RH WIND       PRES   REMARKS
GLASGOW        SUNNY     66  38  35 SE20      29.72F
JORDAN           N/A     66  56  70 SE12      29.74F
SIDNEY         SUNNY     67  42  40 N7        29.76S
WOLF POINT     SUNNY     68  40  35 E10       29.75F
PLENTYWOOD       N/A     63  43  48 CALM      29.75F
POPLAR           N/A     64  41  42 NE5       29.75F
$$

MTZ028>42-056>058-281600-
SOUTHCENTRAL AND SOUTHEAST MONTANA

CITY           SKY/WX    TMP DP  RH WIND       PRES   REMARKS
BAKER          SUNNY     68  42  38 NW6       29.79F
BILLINGS       MOSUNNY   67  47  48 SW13      29.79F
LIVINGSTON     PTSUNNY   67  45  45 SW17      29.85F
MILES CITY     SUNNY     69  54  58 S9        29.78R
BIG TIMBER     SUNNY     63  46  55 W15       29.86F
FORSYTH          N/A     66  55  68 SE12      29.76S
LAUREL           N/A     69  45  42 S9        29.81S
ROUNDUP          N/A     64  47  54 S9        29.72S
$$

REGIONAL REPORTS...DAKOTAS

CITY           SKY/WX    TMP DP  RH WIND       PRES   REMARKS
WILLISTON      MOSUNNY   70  43  37 N6        29.75S
MINOT          CLOUDY    65  46  50 NW15      29.65R
DICKINSON      CLOUDY    66  39  37 NW13      29.74R
BEACH            N/A     63  43  48 N7        29.82S
CROSBY           N/A     63  45  51 NW12G18   29.73R
TIOGA            N/A     63  45  51 NW14      29.73F
WATFORD CITY     N/A     63  45  51 NW7G13    29.73F
BISMARCK       PTSUNNY   69  53  56 N16G22    29.65R
GRAND FORKS    HVY RAIN  61  61 100 NE10      29.49S FOG
FARGO          CLOUDY    69  64  84 S17G23    29.46R
BUFFALO SD       N/A     70  43  37 N10       29.74R
RAPID CITY     SUNNY     70  55  59 NW21      29.80S
$$

REGIONAL REPORTS...WYOMING/IDAHO/WASHINGTON

CITY           SKY/WX    TMP DP  RH WIND       PRES   REMARKS
GILLETTE       SUNNY     66  54  65 S7        29.87S
SHERIDAN       CLOUDY    70  51  51 NE5       29.83F
BUFFALO WY     SUNNY     67  49  52 SE10      29.90S
CODY           SUNNY     67  42  40 N5        29.89F
YELLOWSTONE LA   N/A     46  44  93 CALM      30.08F
IDAHO FALLS    CLOUDY    61  52  72 N3        29.95S
SALMON         SUNNY     57  50  77 N5        29.90S
BOISE          SUNNY     68  44  42 W7        29.88R
SPOKANE        MOSUNNY   58  47  66 S13       29.85S
$$

REGIONAL REPORTS...ALBERTA

CITY           SKY/WX    TMP DP  RH WIND       PRES   REMARKS
EDMONTON       CLOUDY    55  50  82 W12G18    29.60R
CALGARY        MOSUNNY   61  41  48 S14       29.70F
LETHBRIDGE     MOSUNNY   59  46  63 SW9       29.72F
MEDICINE HAT   MOSUNNY   66  41  39 E8        29.67F
$$

REGIONAL REPORTS...SASKATCHEWAN

CITY           SKY/WX    TMP DP  RH WIND       PRES   REMARKS
SWIFT CURRENT  CLOUDY    61  46  59 SE7       29.72S
REGINA         MOSUNNY   64  48  55 NW10      29.72R
SASKATOON      MOSUNNY   63  46  55 W10G17    29.67S
ROCKGLEN         N/A     64  39  39 NE3         N/A
$$



USA.gov is the U.S. government's official web portal to all federal, state and local government web resources and services.